Location: Aufkirchen
(47.9603°N, 11.3653°E)
Time: 06:39:36
(UTC+01:00)

Transit 4A - Pass Details

Date: 29 November 2020
Orbit: 864 x 980 km, 66.8° (Epoch: 25 January)

Event Time Altitude Azimuth Distance (km) Brightness Sun altitude
Rises 17:50:21 0° 319° (NW) 3,679 11.4 -13.8°
Reaches altitude 10° 17:53:13 10° 309° (NW) 2,717 10.8 -14.3°
Maximum altitude 17:58:36 30° 251° (WSW) 1,644 10.0 -15.2°
Drops below altitude 10° 18:03:51 10° 193° (SSW) 2,644 10.6 -16.0°
Sets 18:06:38 0° 182° (S) 3,564 11.2 -16.5°
